Location: Byhalia Creek
(34.8270°N, 89.8040°W)
Time: 07:50:24
(UTC+00:00)

SAR-Lupe-1 - Pass Details

Date: 22 April 2026
Orbit: 479 x 484 km, 98.1° (Epoch: 10 January)

Event Time Altitude Azimuth Distance (km) Brightness Sun altitude
Rises 00:54:40 0° 171° (S) 2,516 7.4 -4.4°
Reaches altitude 10° 00:56:43 10° 173° (S) 1,643 6.5 -4.8°
Maximum altitude 01:00:14 71° 257° (WSW) 509 4.4 -5.5°
Drops below altitude 10° 01:03:47 10° 343° (NNW) 1,657 7.3 -6.2°
Sets 01:05:51 0° 346° (NNW) 2,541 8.2 -6.6°
